• în Republica Moldova
  • Lista ţărilor
  • Pe 7 zile
  • Temperatura apei
  • Hartă satelitară
  • Meteo pe hartă
  • Widget-uri
  • user-avatar
    Intrare

    Meteo pe oră la Kalgoorlie

    Astăzi, 26 Martie, Marţi

    Timp Temperatura Precipitaţii Vânt Presiune Umiditate
    00:00 +17°C° 0 mm 6 m/s 734 mmHg 55%
    01:00 +17°C° 0 mm 6 m/s 734 mmHg 59%
    02:00 +16°C° 0 mm 6 m/s 734 mmHg 63%
    03:00 +16°C° 0 mm 6 m/s 734 mmHg 65%
    04:00 +15°C° 0 mm 6 m/s 734 mmHg 68%
    05:00 +15°C° 0 mm 6 m/s 734 mmHg 71%
    06:00 +15°C° 0 mm 6 m/s 734 mmHg 69%
    07:00 +16°C° 0 mm 7 m/s 735 mmHg 68%
    08:00 +16°C° 0 mm 6 m/s 735 mmHg 63%
    09:00 +19°C° 0 mm 6 m/s 735 mmHg 55%
    10:00 +21°C° 0 mm 6 m/s 734 mmHg 48%
    11:00 +23°C° 0 mm 6 m/s 734 mmHg 40%
    12:00 +26°C° 0 mm 6 m/s 734 mmHg 35%
    13:00 +27°C° 0 mm 6 m/s 733 mmHg 31%
    14:00 +29°C° 0 mm 6 m/s 732 mmHg 26%
    15:00 +29°C° 0 mm 6 m/s 732 mmHg 26%
    16:00 +29°C° 0 mm 6 m/s 732 mmHg 25%
    17:00 +29°C° 0 mm 5 m/s 732 mmHg 25%
    18:00 +28°C° 0 mm 5 m/s 732 mmHg 28%
    19:00 +27°C° 0 mm 5 m/s 733 mmHg 30%
    20:00 +26°C° 0 mm 5 m/s 733 mmHg 33%
    21:00 +25°C° 0 mm 5 m/s 733 mmHg 35%
    22:00 +23°C° 0 mm 5 m/s 733 mmHg 36%
    23:00 +23°C° 0 mm 5 m/s 733 mmHg 38%

    Mâine, 27 Martie, Miercuri

    Timp Temperatura Precipitaţii Vânt Presiune Umiditate
    00:00 +22°C° 0 mm 5 m/s 733 mmHg 39%
    01:00 +22°C° 0 mm 5 m/s 732 mmHg 41%
    02:00 +21°C° 0 mm 5 m/s 732 mmHg 42%
    03:00 +21°C° 0 mm 5 m/s 732 mmHg 43%
    04:00 +21°C° 0 mm 5 m/s 731 mmHg 44%
    05:00 +20°C° 0 mm 4 m/s 731 mmHg 45%
    06:00 +21°C° 0 mm 5 m/s 731 mmHg 43%
    07:00 +22°C° 0 mm 5 m/s 731 mmHg 41%
    08:00 +23°C° 0 mm 5 m/s 732 mmHg 39%
    09:00 +25°C° 0 mm 5 m/s 731 mmHg 36%
    10:00 +26°C° 0 mm 5 m/s 731 mmHg 34%
    11:00 +27°C° 0 mm 5 m/s 731 mmHg 31%
    12:00 +29°C° 0 mm 4 m/s 731 mmHg 28%
    13:00 +32°C° 0 mm 4 m/s 730 mmHg 24%
    14:00 +34°C° 0 mm 3 m/s 730 mmHg 21%
    15:00 +34°C° 0 mm 3 m/s 730 mmHg 20%
    16:00 +35°C° 0 mm 3 m/s 730 mmHg 19%
    17:00 +35°C° 0 mm 2 m/s 729 mmHg 19%
    18:00 +33°C° 0 mm 3 m/s 729 mmHg 21%
    19:00 +31°C° 0 mm 3 m/s 729 mmHg 24%
    20:00 +30°C° 0 mm 4 m/s 729 mmHg 26%
    21:00 +30°C° 0 mm 4 m/s 730 mmHg 27%
    22:00 +29°C° 0 mm 4 m/s 730 mmHg 28%
    23:00 +29°C° 0 mm 4 m/s 730 mmHg 29%

    Poimâine, 28 Martie, Joi

    Timp Temperatura Precipitaţii Vânt Presiune Umiditate
    00:00 +29°C° 0 mm 3 m/s 729 mmHg 30%
    01:00 +28°C° 0 mm 3 m/s 729 mmHg 31%
    02:00 +28°C° 0 mm 2 m/s 729 mmHg 32%
    03:00 +27°C° 0 mm 2 m/s 729 mmHg 35%
    04:00 +26°C° 0 mm 2 m/s 729 mmHg 38%
    05:00 +26°C° 0 mm 2 m/s 729 mmHg 41%
    06:00 +24°C° 0.8 mm 3 m/s 729 mmHg 52%
    07:00 +21°C° 0.8 mm 3 m/s 730 mmHg 62%
    08:00 +20°C° 0.8 mm 3 m/s 730 mmHg 73%
    09:00 +20°C° 0.4 mm 3 m/s 731 mmHg 70%
    10:00 +21°C° 0.4 mm 3 m/s 731 mmHg 66%
    11:00 +22°C° 0.4 mm 3 m/s 731 mmHg 63%
    12:00 +22°C° 0.1 mm 3 m/s 730 mmHg 60%
    13:00 +24°C° 0.1 mm 3 m/s 730 mmHg 57%
    14:00 +25°C° 0.1 mm 3 m/s 729 mmHg 55%
    15:00 +26°C° 0 mm 4 m/s 729 mmHg 52%
    16:00 +26°C° 0 mm 5 m/s 729 mmHg 49%
    17:00 +27°C° 0 mm 6 m/s 730 mmHg 46%
    18:00 +26°C° 0 mm 7 m/s 730 mmHg 47%
    19:00 +24°C° 0 mm 8 m/s 731 mmHg 48%
    20:00 +22°C° 0 mm 9 m/s 732 mmHg 49%
    21:00 +21°C° 0 mm 9 m/s 732 mmHg 54%
    22:00 +19°C° 0 mm 9 m/s 733 mmHg 59%
    23:00 +17°C° 0 mm 9 m/s 733 mmHg 64%

    29 Martie, Vineri

    Timp Temperatura Precipitaţii Vânt Presiune Umiditate
    00:00 +17°C° 0 mm 8 m/s 733 mmHg 67%
    01:00 +16°C° 0 mm 8 m/s 733 mmHg 69%
    02:00 +15°C° 0 mm 8 m/s 733 mmHg 72%
    03:00 +14°C° 0 mm 7 m/s 733 mmHg 72%
    04:00 +14°C° 0 mm 7 m/s 734 mmHg 72%
    05:00 +12°C° 0 mm 7 m/s 734 mmHg 72%
    06:00 +12°C° 0 mm 7 m/s 735 mmHg 71%
    07:00 +12°C° 0 mm 7 m/s 735 mmHg 70%
    08:00 +12°C° 0 mm 7 m/s 736 mmHg 69%
    09:00 +15°C° 0 mm 7 m/s 736 mmHg 59%
    10:00 +17°C° 0 mm 8 m/s 736 mmHg 50%
    11:00 +20°C° 0 mm 8 m/s 735 mmHg 41%
    12:00 +21°C° 0 mm 8 m/s 735 mmHg 36%
    13:00 +23°C° 0 mm 8 m/s 734 mmHg 32%
    14:00 +24°C° 0 mm 8 m/s 734 mmHg 28%
    15:00 +24°C° 0 mm 8 m/s 734 mmHg 29%
    16:00 +24°C° 0 mm 8 m/s 734 mmHg 30%
    17:00 +23°C° 0 mm 8 m/s 734 mmHg 31%
    18:00 +22°C° 0 mm 8 m/s 734 mmHg 35%
    19:00 +21°C° 0 mm 8 m/s 735 mmHg 39%
    20:00 +18°C° 0 mm 8 m/s 736 mmHg 43%
    21:00 +17°C° 0 mm 8 m/s 736 mmHg 48%
    22:00 +16°C° 0 mm 8 m/s 736 mmHg 53%
    23:00 +15°C° 0 mm 8 m/s 736 mmHg 58%

    30 Martie, Sâmbătă

    Timp Temperatura Precipitaţii Vânt Presiune Umiditate
    00:00 +15°C° 0 mm 7 m/s 736 mmHg 62%
    01:00 +14°C° 0 mm 7 m/s 736 mmHg 65%
    02:00 +12°C° 0 mm 7 m/s 736 mmHg 68%
    03:00 +12°C° 0 mm 7 m/s 736 mmHg 70%
    04:00 +13°C° 0 mm 6 m/s 736 mmHg 72%
    05:00 +11°C° 0 mm 6 m/s 736 mmHg 74%
    06:00 +12°C° 0 mm 7 m/s 736 mmHg 71%
    07:00 +12°C° 0 mm 7 m/s 736 mmHg 69%
    08:00 +14°C° 0 mm 7 m/s 737 mmHg 67%
    09:00 +16°C° 0 mm 7 m/s 736 mmHg 57%
    10:00 +18°C° 0 mm 8 m/s 736 mmHg 48%
    11:00 +21°C° 0 mm 8 m/s 736 mmHg 39%
    12:00 +22°C° 0 mm 7 m/s 735 mmHg 35%
    13:00 +24°C° 0 mm 7 m/s 735 mmHg 31%
    14:00 +26°C° 0 mm 7 m/s 734 mmHg 27%
    15:00 +26°C° 0 mm 7 m/s 734 mmHg 27%
    16:00 +26°C° 0 mm 6 m/s 734 mmHg 27%
    17:00 +26°C° 0 mm 6 m/s 734 mmHg 27%
    18:00 +24°C° 0 mm 6 m/s 734 mmHg 30%
    19:00 +23°C° 0 mm 6 m/s 735 mmHg 32%
    20:00 +22°C° 0 mm 6 m/s 735 mmHg 35%
    21:00 +21°C° 0 mm 6 m/s 735 mmHg 36%
    22:00 +20°C° 0 mm 6 m/s 735 mmHg 38%
    23:00 +20°C° 0 mm 7 m/s 735 mmHg 40%

    31 Martie, Duminică

    Timp Temperatura Precipitaţii Vânt Presiune Umiditate
    00:00 +19°C° 0 mm 6 m/s 735 mmHg 41%
    01:00 +19°C° 0 mm 6 m/s 734 mmHg 43%
    02:00 +17°C° 0 mm 6 m/s 734 mmHg 45%
    03:00 +17°C° 0 mm 6 m/s 734 mmHg 47%
    04:00 +16°C° 0 mm 6 m/s 734 mmHg 49%
    05:00 +16°C° 0 mm 6 m/s 734 mmHg 50%
    06:00 +17°C° 0 mm 7 m/s 735 mmHg 49%
    07:00 +17°C° 0 mm 7 m/s 735 mmHg 47%
    08:00 +18°C° 0 mm 8 m/s 735 mmHg 45%
    09:00 +21°C° 0 mm 8 m/s 735 mmHg 40%
    10:00 +23°C° 0 mm 8 m/s 735 mmHg 34%
    11:00 +26°C° 0 mm 8 m/s 734 mmHg 28%
    12:00 +27°C° 0 mm 7 m/s 734 mmHg 25%
    13:00 +28°C° 0 mm 7 m/s 733 mmHg 22%
    14:00 +30°C° 0 mm 6 m/s 732 mmHg 19%
    15:00 +30°C° 0 mm 6 m/s 732 mmHg 19%
    16:00 +30°C° 0 mm 5 m/s 732 mmHg 18%
    17:00 +30°C° 0 mm 5 m/s 732 mmHg 18%
    18:00 +28°C° 0 mm 4 m/s 732 mmHg 20%
    19:00 +27°C° 0 mm 4 m/s 733 mmHg 21%
    20:00 +26°C° 0 mm 4 m/s 733 mmHg 23%
    21:00 +26°C° 0 mm 4 m/s 733 mmHg 24%
    22:00 +25°C° 0 mm 5 m/s 732 mmHg 25%
    23:00 +24°C° 0 mm 6 m/s 732 mmHg 26%
    Arată mai mult